Location: Newark
(42.8802°N, 9.1853°W)
Time: 06:06:12
(UTC+00:00)

N. Korean satellite - Visible Passes

Search period start: 20 November 2019 00:00
Search period end: 30 November 2019 00:00
Orbit: 456 x 506 km, 97.2° (Epoch: 18 November)

Date Brightness Start Highest point End Pass type
(mag) Time Alt. Az. Time Alt. Az. Time Alt. Az.
20 Nov 9.4 05:45:28 10° NE 05:48:22 21° E 05:51:14 10° SE visible
20 Nov 7.3 17:53:59 10° S 17:57:34 59° W 18:01:14 10° NNW visible
21 Nov 10.3 05:21:50 10° ENE 05:22:46 11° E 05:23:42 10° ESE visible
21 Nov 6.8 06:52:52 10° N 06:56:28 50° WNW 07:00:00 10° SSW visible
22 Nov 6.8 06:27:25 10° NNE 06:31:07 75° ESE 06:34:44 10° S visible
22 Nov 9.8 18:37:49 10° SW 18:40:21 18° W 18:42:55 10° NW visible
23 Nov 8.4 06:02:16 10° NNE 06:05:40 34° E 06:08:59 10° SSE visible
23 Nov 8.5 18:11:26 10° SSW 18:14:49 35° W 18:18:15 10° NNW visible
24 Nov 9.7 05:37:37 10° NE 05:40:07 17° E 05:42:34 10° SE visible
24 Nov 6.9 17:45:42 10° S 17:49:22 76° WSW 17:53:05 10° NNW visible
25 Nov 6.5 06:44:37 10° N 06:48:17 64° WNW 06:51:51 10° SSW visible
25 Nov 10.2 18:56:35 10° WSW 18:57:42 11° W 18:58:49 10° WNW visible
26 Nov 7.3 06:19:15 10° NNE 06:22:53 58° E 06:26:26 10° S visible
26 Nov 9.4 18:29:10 10° SSW 18:32:05 22° W 18:35:02 10° NW visible
27 Nov 8.9 05:54:14 10° NE 05:57:24 27° E 06:00:29 10° SSE visible
27 Nov 8.0 18:03:01 10° S 18:06:33 44° W 18:10:09 10° NNW visible
28 Nov 10.0 05:29:53 10° ENE 05:31:48 14° E 05:33:42 10° ESE visible
28 Nov 7.1 07:01:58 10° N 07:05:22 38° WNW 07:08:42 10° SW visible
28 Nov 6.6 17:37:27 10° SSE 17:41:08 85° ENE 17:44:53 10° N visible
29 Nov 6.5 06:36:23 10° N 06:40:02 82° WNW 06:43:36 10° SSW visible
29 Nov 10.0 18:47:23 10° SW 18:49:22 14° W 18:51:22 10° WNW visible
